Location: Unspecified
(41.5000°N, 0.0000°E)
Time: 14:18:37
(UTC+00:00)

deb Explorer IX - Pass Details

Date: 24 June 2019
Orbit: 539 x 1111 km, 38.8° (Epoch: 18 August)

Event Time Altitude Azimuth Distance (km) Brightness Sun altitude
Rises 16:05:01 0° 273° (W) 3,896 ? 36.9°
Reaches altitude 10° 16:07:47 10° 271° (W) 2,963 ? 36.4°
Maximum altitude 16:15:05 66° 191° (SSW) 1,194 ? 35.0°
Drops below altitude 10° 16:22:08 10° 111° (ESE) 2,863 ? 33.7°
Sets 16:24:45 0° 109° (ESE) 3,758 ? 33.2°
